STARLINK-11104, 59763

Orbit data source: Space-Track

STARLINK-11104, 59763 is a payload satellite owned by SpaceX/Seattle (US) in LEO that was launched on Tue, 14 May 2024 UTC via an FALCON 9 launch vehicle from the Air Force Western Test Range (AFWTR). Payload-class satellites include a variety of spacecraft equipped with specific instruments for various scientific and technological missions. These include communications satellites like Starlink; space stations such as the ISS; scientific satellites like the Hubble; Earth observation satellites from companies like Planet Labs, Umbra, and HawkEye 360; GPS; miniature CubeSats for education and research; and military/defense satellites.

Loading next visibility...
Identifier
59763, 2024-091L
Orbit
LEO
Country
Flag of USUS
Related business
Manufacturer
SpaceX/Seattle
Mission
Operational Commercial Communications
Bus & Motor
STARLINK V2MD, Unknown motor
Mass
960 kg wet, ~910 kg dry
Launch date (UTC)
2024-05-14 (2 years ago)
Launch vehicle
FALCON 9
Launch site
Air Force Western Test Range (AFWTR)
Object type
Payload
Rocket body
Debris
Shape & HBR
Box + 2 Pan, 18.1 m
Radar Cross Section
36.964 m², Large (>1 m²)

Expand to show TLE details & history
Last TLE update: 3 days ago

TLE from 3 days ago
0 STARLINK-11104
1 59763U 24091L   26170.92419073 -.00001515  00000-0 -76578-5 0  9999
2 59763  53.1596  62.0468 0000905  86.0369 274.0752 15.69697656121576
Epoch: 2026-06-19T22:10Z
TLE epoch observation values (Epoch: 2026-06-19T22:10:50.079Z)
Latitude
-0.00003°
Longitude
-178.80807°
Altitude
360.634 km
Speed
7.694 km/s
True Right ascension
04h 08m 11s
True Declination
0° 00' 00"
Sunlit
Object was in daylight at epoch
Visualization orbit readout
Latitude
Unknown
Longitude
Unknown
Altitude
Unknown
Speed
Unknown
Apparent Right ascension
Unknown
Apparent Declination
Unknown
Sunlit
N/A
Visualization observer readout
Local Sidereal Time
21:31:25
Azimuth
Unknown
Elevation
Unknown
Doppler factor
Unknown
Orbital elements
Apogee altitude
360.633 km
Perigee altitude
359.413 km
Semi-major axis
6,738.16 km
Eccentricity
0.00009
Inclination
53.1596°
RAAN
62.0468°
Arg. of periapsis
86.0369°
True anomaly
274.06486°
Mean anomaly
274.0752°
Eccentric anomaly
274.07003°
Mean motion
3.92402 °/min
Orbital period
91.74 mins
BSTAR
-0.0000076578
Loading maneuver chart data...
Computing Atmospheric mass density...
Loading historical data...
Loading historical data...
Loading historical data...
Loading historical data...
Loading historical data...
Loading historical data...
Loading historical data...

Documentation

Showing up to 5 results
|